QPF
0.00 0.00 0.00 0.00 0.00 0.00 0.00 0.00 0.00 0.00 0.00 0.00 0.00 0.00 0.00 0.00 0.00 0.00 0.01 0.01 0.01 0.01 0.02 0.03 0.03 0.03 0.02 0.02 0.01 0.01 0.01 0.01 0.01 0.01 0.01 0.01 0.01 0.01 0.01 0.01 0.01 0.02 0.02 0.02 0.01 0.01 0.01 0.02 0.02
0.00 0.00 0.00 0.00 0.00 0.01 0.00 0.00 0.00 0.00 0.00 0.00 0.00 0.00 0.00 0.00 0.00 0.01 0.01 0.00 0.01 0.01 0.01 0.03 0.04 0.03 0.02 0.01 0.01 0.01 0.01 0.02 0.01 0.01 0.01 0.01 0.01 0.02 0.02 0.02 0.02 0.02 0.02 0.01 0.01 0.01 0.00 0.01 0.01
0.00 0.01 0.01 0.01 0.00 0.00 0.00 0.00 0.00 0.00 0.00 0.00 0.00 0.00 0.00 0.00 0.00 0.00 0.00 0.00 0.01 0.01 0.02 0.03 0.03 0.04 0.02 0.01 0.01 0.01 0.01 0.01 0.01 0.01 0.01 0.01 0.01 0.01 0.02 0.02 0.02 0.01 0.01 0.02 0.01 0.01 0.00 0.00 0.00
0.00 0.01 0.01 0.00 0.00 0.00 0.00 0.00 0.00 0.00 0.00 0.00 0.00 0.00 0.00 0.00 0.00 0.00 0.00 0.01 0.01 0.02 0.02 0.03 0.03 0.05 0.03 0.01 0.01 0.02 0.02 0.02 0.01 0.01 0.02 0.02 0.01 0.01 0.01 0.01 0.01 0.01 0.01 0.01 0.02 0.01 0.01 0.01 0.00
0.01 0.00 0.00 0.00 0.00 0.00 0.01 0.01 0.01 0.00 0.00 0.00 0.00 0.01 0.01 0.00 0.01 0.01 0.01 0.02 0.02 0.02 0.03 0.04 0.04 0.06 0.04 0.02 0.01 0.02 0.03 0.02 0.01 0.01 0.02 0.02 0.02 0.01 0.01 0.01 0.01 0.01 0.01 0.01 0.02 0.01 0.01 0.01 0.01
0.00 0.00 0.00 0.00 0.00 0.01 0.01 0.01 0.01 0.01 0.00 0.00 0.00 0.01 0.01 0.01 0.01 0.02 0.02 0.03 0.03 0.03 0.03 0.05 0.05 0.06 0.04 0.02 0.02 0.02 0.02 0.02 0.01 0.01 0.02 0.02 0.02 0.02 0.01 0.01 0.01 0.01 0.01 0.01 0.02 0.01 0.01 0.01 0.01
0.00 0.00 0.00 0.00 0.00 0.01 0.01 0.02 0.01 0.01 0.01 0.00 0.00 0.00 0.01 0.01 0.01 0.02 0.03 0.03 0.04 0.04 0.04 0.05 0.06 0.06 0.04 0.02 0.03 0.03 0.02 0.01 0.01 0.02 0.03 0.02 0.02 0.02 0.01 0.01 0.01 0.01 0.01 0.01 0.02 0.01 0.01 0.01 0.01
0.00 0.00 0.00 0.00 0.00 0.00 0.01 0.02 0.01 0.02 0.02 0.01 0.00 0.00 0.01 0.01 0.01 0.02 0.03 0.04 0.05 0.06 0.07 0.08 0.07 0.08 0.04 0.02 0.03 0.03 0.02 0.01 0.01 0.01 0.01 0.01 0.01 0.02 0.01 0.01 0.01 0.01 0.01 0.01 0.01 0.02 0.01 0.01 0.01
0.00 0.00 0.01 0.01 0.00 0.00 0.01 0.01 0.01 0.02 0.02 0.01 0.00 0.00 0.00 0.00 0.01 0.02 0.03 0.04 0.04 0.06 0.09 0.11 0.10 0.09 0.06 0.03 0.04 0.04 0.02 0.01 0.01 0.02 0.01 0.01 0.01 0.01 0.01 0.01 0.01 0.01 0.01 0.01 0.01 0.02 0.02 0.01 0.01
0.00 0.00 0.01 0.01 0.00 0.01 0.01 0.01 0.01 0.01 0.02 0.01 0.01 0.00 0.01 0.01 0.02 0.03 0.03 0.04 0.04 0.05 0.06 0.09 0.12 0.11 0.07 0.04 0.03 0.04 0.02 0.02 0.01 0.01 0.01 0.01 0.01 0.01 0.01 0.01 0.01 0.01 0.01 0.01 0.01 0.02 0.02 0.01 0.01
0.00 0.00 0.00 0.00 0.00 0.00 0.00 0.01 0.01 0.01 0.02 0.02 0.01 0.01 0.01 0.01 0.02 0.02 0.03 0.04 0.04 0.05 0.05 0.06 0.11 0.13 0.10 0.07 0.04 0.03 0.03 0.02 0.02 0.02 0.02 0.02 0.02 0.01 0.02 0.02 0.01 0.01 0.01 0.00 0.01 0.02 0.01 0.01 0.00
0.00 0.00 0.00 0.00 0.00 0.00 0.00 0.00 0.01 0.01 0.02 0.02 0.02 0.02 0.01 0.02 0.02 0.02 0.02 0.04 0.05 0.05 0.06 0.07 0.09 0.11 0.11 0.10 0.06 0.04 0.03 0.03 0.02 0.02 0.02 0.02 0.02 0.03 0.03 0.03 0.02 0.01 0.01 0.01 0.00 0.01 0.01 0.00 0.00
0.01 0.00 0.00 0.00 0.00 0.00 0.00 0.00 0.00 0.00 0.01 0.01 0.01 0.01 0.02 0.02 0.01 0.01 0.02 0.03 0.04 0.05 0.05 0.07 0.09 0.10 0.10 0.09 0.08 0.04 0.03 0.02 0.02 0.02 0.02 0.02 0.03 0.04 0.04 0.03 0.02 0.02 0.02 0.01 0.01 0.01 0.01 0.01 0.00
0.00 0.00 0.00 0.00 0.00 0.00 0.00 0.00 0.00 0.00 0.00 0.00 0.01 0.01 0.01 0.02 0.02 0.01 0.02 0.02 0.03 0.04 0.04 0.05 0.09 0.09 0.10 0.09 0.08 0.06 0.04 0.02 0.02 0.02 0.02 0.02 0.04 0.05 0.07 0.06 0.04 0.03 0.02 0.01 0.01 0.01 0.01 0.01 0.01
0.00 0.00 0.00 0.00 0.00 0.00 0.00 0.00 0.00 0.00 0.00 0.01 0.01 0.01 0.01 0.01 0.01 0.01 0.02 0.01 0.02 0.02 0.03 0.04 0.07 0.09 0.09 0.09 0.10 0.09 0.05 0.04 0.02 0.02 0.02 0.02 0.03 0.05 0.08 0.10 0.07 0.05 0.04 0.02 0.02 0.01 0.01 0.01 0.01
0.00 0.00 0.00 0.00 0.00 0.00 0.00 0.00 0.00 0.00 0.00 0.00 0.01 0.01 0.00 0.00 0.00 0.01 0.01 0.01 0.01 0.02 0.02 0.03 0.04 0.07 0.09 0.09 0.10 0.11 0.07 0.05 0.03 0.03 0.03 0.03 0.03 0.04 0.07 0.09 0.10 0.08 0.06 0.04 0.04 0.02 0.01 0.02 0.01
0.00 0.00 0.00 0.00 0.00 0.00 0.00 0.00 0.00 0.00 0.00 0.01 0.01 0.01 0.00 0.00 0.00 0.00 0.00 0.01 0.01 0.01 0.02 0.03 0.04 0.06 0.07 0.09 0.11 0.11 0.11 0.08 0.05 0.04 0.04 0.05 0.04 0.04 0.04 0.04 0.06 0.06 0.06 0.04 0.04 0.03 0.03 0.02 0.02
0.00 0.00 0.00 0.00 0.00 0.00 0.00 0.00 0.00 0.01 0.01 0.01 0.01 0.01 0.01 0.00 0.00 0.00 0.00 0.00 0.01 0.01 0.01 0.03 0.04 0.06 0.08 0.09 0.11 0.13 0.13 0.10 0.07 0.05 0.04 0.04 0.06 0.06 0.05 0.04 0.05 0.06 0.06 0.05 0.04 0.04 0.04 0.03 0.03
0.00 0.00 0.00 0.00 0.00 0.00 0.00 0.00 0.00 0.00 0.01 0.01 0.01 0.01 0.01 0.01 0.01 0.01 0.00 0.01 0.01 0.01 0.01 0.02 0.04 0.06 0.07 0.08 0.10 0.12 0.14 0.13 0.08 0.05 0.04 0.03 0.05 0.07 0.07 0.06 0.05 0.06 0.06 0.04 0.03 0.03 0.04 0.04 0.04
0.00 0.00 0.00 0.00 0.00 0.00 0.00 0.00 0.00 0.00 0.00 0.01 0.02 0.02 0.02 0.01 0.01 0.01 0.00 0.00 0.01 0.01 0.01 0.01 0.03 0.06 0.07 0.09 0.09 0.11 0.14 0.18 0.16 0.11 0.07 0.05 0.04 0.05 0.06 0.07 0.08 0.09 0.09 0.07 0.04 0.03 0.03 0.03 0.03
0.00 0.00 0.00 0.00 0.00 0.00 0.00 0.00 0.00 0.00 0.01 0.02 0.03 0.02 0.03 0.02 0.02 0.02 0.01 0.01 0.01 0.01 0.01 0.01 0.03 0.05 0.07 0.09 0.09 0.08 0.10 0.15 0.19 0.16 0.12 0.09 0.06 0.05 0.05 0.06 0.08 0.09 0.11 0.12 0.09 0.07 0.05 0.03 0.03
0.01 0.00 0.00 0.01 0.01 0.01 0.01 0.01 0.00 0.00 0.00 0.01 0.02 0.02 0.03 0.03 0.03 0.03 0.02 0.02 0.02 0.02 0.02 0.02 0.04 0.05 0.08 0.09 0.09 0.07 0.06 0.08 0.12 0.13 0.10 0.08 0.08 0.08 0.08 0.07 0.06 0.07 0.08 0.10 0.09 0.07 0.07 0.06 0.04
0.00 0.00 0.01 0.01 0.01 0.01 0.01 0.01 0.01 0.01 0.01 0.01 0.01 0.01 0.02 0.04 0.05 0.05 0.05 0.04 0.03 0.04 0.04 0.04 0.06 0.07 0.07 0.09 0.09 0.09 0.06 0.06 0.08 0.09 0.09 0.07 0.06 0.07 0.09 0.09 0.08 0.06 0.07 0.08 0.09 0.09 0.08 0.07 0.05
0.00 0.00 0.01 0.01 0.01 0.01 0.00 0.01 0.01 0.04 0.03 0.01 0.01 0.01 0.02 0.03 0.05 0.07 0.07 0.08 0.08 0.06 0.06 0.07 0.08 0.08 0.07 0.07 0.07 0.08 0.05 0.04 0.05 0.08 0.08 0.08 0.08 0.06 0.05 0.07 0.08 0.08 0.06 0.06 0.07 0.07 0.08 0.08 0.07
0.01 0.01 0.02 0.02 0.02 0.01 0.00 0.01 0.02 0.04 0.03 0.02 0.01 0.01 0.01 0.03 0.05 0.05 0.07 0.11 0.12 0.11 0.10 0.09 0.09 0.10 0.08 0.07 0.06 0.06 0.05 0.04 0.06 0.08 0.10 0.10 0.10 0.08 0.06 0.06 0.07 0.08 0.07 0.06 0.05 0.05 0.04 0.04 0.05
0.01 0.01 0.02 0.01 0.01 0.01 0.01 0.01 0.01 0.03 0.03 0.03 0.02 0.01 0.01 0.02 0.03 0.05 0.06 0.07 0.11 0.14 0.15 0.13 0.11 0.10 0.08 0.07 0.05 0.04 0.04 0.03 0.04 0.07 0.09 0.11 0.11 0.11 0.10 0.08 0.08 0.08 0.08 0.07 0.06 0.05 0.05 0.04 0.03
0.01 0.01 0.01 0.02 0.01 0.01 0.01 0.01 0.01 0.01 0.02 0.05 0.05 0.02 0.01 0.02 0.03 0.05 0.06 0.07 0.08 0.09 0.10 0.11 0.11 0.09 0.07 0.06 0.05 0.05 0.04 0.03 0.03 0.04 0.07 0.08 0.09 0.09 0.10 0.10 0.09 0.08 0.08 0.08 0.08 0.07 0.06 0.06 0.05
0.01 0.01 0.02 0.02 0.02 0.01 0.01 0.01 0.01 0.01 0.02 0.03 0.06 0.04 0.02 0.02 0.04 0.04 0.04 0.07 0.06 0.05 0.04 0.05 0.07 0.07 0.06 0.05 0.05 0.05 0.05 0.04 0.03 0.03 0.04 0.06 0.07 0.07 0.07 0.07 0.07 0.07 0.07 0.07 0.07 0.07 0.07 0.06 0.05
0.01 0.01 0.02 0.02 0.01 0.01 0.01 0.01 0.01 0.01 0.01 0.02 0.04 0.04 0.03 0.03 0.03 0.04 0.04 0.06 0.05 0.04 0.03 0.04 0.04 0.05 0.05 0.05 0.05 0.05 0.05 0.05 0.05 0.05 0.05 0.06 0.08 0.09 0.08 0.07 0.05 0.05 0.06 0.06 0.06 0.07 0.07 0.06 0.06
0.01 0.01 0.01 0.02 0.01 0.01 0.00 0.00 0.00 0.00 0.02 0.03 0.03 0.03 0.02 0.02 0.02 0.02 0.03 0.04 0.03 0.03 0.03 0.03 0.03 0.03 0.03 0.04 0.04 0.04 0.04 0.04 0.04 0.04 0.04 0.05 0.07 0.09 0.10 0.10 0.09 0.06 0.06 0.06 0.06 0.05 0.05 0.04 0.04
MSLP
1012.23 1012.74 1013.44 1014.25 1015.06 1015.79 1016.38 1016.82 1017.10 1017.27 1017.37 1017.46 1017.56 1017.68 1017.82 1017.95 1018.04 1018.06 1018.00 1017.87 1017.70 1017.52 1017.36 1017.25 1017.21 1017.24 1017.31 1017.40 1017.50 1017.58 1017.65 1017.71 1017.77 1017.85 1017.95 1018.07 1018.19 1018.31 1018.40 1018.44 1018.43 1018.38 1018.31 1018.23 1018.16 1018.10 1018.08 1018.07 1018.06
1012.77 1013.38 1014.13 1014.93 1015.68 1016.30 1016.74 1017.00 1017.11 1017.12 1017.09 1017.08 1017.12 1017.22 1017.36 1017.50 1017.62 1017.68 1017.67 1017.59 1017.48 1017.35 1017.25 1017.19 1017.20 1017.27 1017.38 1017.51 1017.63 1017.75 1017.84 1017.93 1018.03 1018.13 1018.25 1018.37 1018.49 1018.59 1018.65 1018.65 1018.62 1018.54 1018.45 1018.36 1018.29 1018.24 1018.22 1018.21 1018.21
1013.45 1014.11 1014.85 1015.59 1016.22 1016.69 1016.97 1017.07 1017.03 1016.92 1016.80 1016.74 1016.76 1016.85 1016.99 1017.16 1017.30 1017.39 1017.41 1017.37 1017.29 1017.22 1017.17 1017.18 1017.24 1017.36 1017.51 1017.68 1017.83 1017.97 1018.09 1018.20 1018.31 1018.42 1018.54 1018.65 1018.75 1018.82 1018.84 1018.81 1018.75 1018.65 1018.55 1018.47 1018.40 1018.37 1018.36 1018.36 1018.36
1014.20 1014.86 1015.55 1016.18 1016.66 1016.96 1017.08 1017.03 1016.89 1016.71 1016.56 1016.49 1016.51 1016.62 1016.79 1016.97 1017.12 1017.23 1017.27 1017.26 1017.23 1017.20 1017.21 1017.27 1017.39 1017.55 1017.74 1017.93 1018.11 1018.26 1018.39 1018.51 1018.62 1018.73 1018.83 1018.93 1019.00 1019.03 1019.03 1018.97 1018.88 1018.78 1018.68 1018.60 1018.55 1018.54 1018.54 1018.55 1018.56
1014.93 1015.56 1016.16 1016.64 1016.96 1017.10 1017.08 1016.93 1016.72 1016.52 1016.38 1016.35 1016.41 1016.56 1016.75 1016.95 1017.11 1017.22 1017.28 1017.30 1017.30 1017.32 1017.39 1017.50 1017.66 1017.86 1018.07 1018.27 1018.45 1018.60 1018.73 1018.84 1018.95 1019.05 1019.15 1019.23 1019.28 1019.29 1019.26 1019.19 1019.09 1018.99 1018.89 1018.82 1018.79 1018.78 1018.80 1018.81 1018.82
1015.55 1016.11 1016.60 1016.93 1017.10 1017.10 1016.97 1016.76 1016.54 1016.36 1016.28 1016.31 1016.43 1016.62 1016.84 1017.06 1017.23 1017.35 1017.43 1017.47 1017.52 1017.59 1017.70 1017.85 1018.05 1018.26 1018.47 1018.66 1018.83 1018.97 1019.08 1019.19 1019.29 1019.39 1019.49 1019.57 1019.63 1019.64 1019.61 1019.53 1019.43 1019.33 1019.23 1019.17 1019.13 1019.12 1019.14 1019.15 1019.15
1015.98 1016.46 1016.82 1017.01 1017.05 1016.95 1016.75 1016.53 1016.33 1016.22 1016.22 1016.32 1016.51 1016.75 1017.00 1017.24 1017.42 1017.55 1017.65 1017.73 1017.82 1017.93 1018.09 1018.28 1018.49 1018.71 1018.90 1019.07 1019.21 1019.33 1019.43 1019.53 1019.64 1019.76 1019.88 1019.98 1020.06 1020.09 1020.07 1020.01 1019.91 1019.81 1019.71 1019.63 1019.58 1019.56 1019.55 1019.54 1019.52
1016.20 1016.58 1016.82 1016.89 1016.83 1016.66 1016.44 1016.24 1016.10 1016.07 1016.15 1016.33 1016.58 1016.87 1017.14 1017.39 1017.58 1017.73 1017.86 1017.98 1018.12 1018.29 1018.49 1018.71 1018.93 1019.14 1019.32 1019.46 1019.57 1019.66 1019.75 1019.86 1019.99 1020.14 1020.30 1020.45 1020.56 1020.63 1020.64 1020.59 1020.50 1020.39 1020.28 1020.18 1020.10 1020.04 1020.00 1019.96 1019.92
1016.23 1016.51 1016.63 1016.61 1016.48 1016.27 1016.06 1015.90 1015.84 1015.89 1016.05 1016.29 1016.59 1016.90 1017.19 1017.45 1017.66 1017.83 1018.00 1018.17 1018.36 1018.59 1018.83 1019.08 1019.31 1019.51 1019.67 1019.79 1019.88 1019.96 1020.05 1020.17 1020.33 1020.52 1020.73 1020.93 1021.09 1021.20 1021.24 1021.21 1021.13 1021.01 1020.88 1020.76 1020.64 1020.55 1020.48 1020.41 1020.35
1016.12 1016.30 1016.34 1016.24 1016.07 1015.86 1015.67 1015.57 1015.57 1015.68 1015.90 1016.19 1016.52 1016.83 1017.13 1017.38 1017.61 1017.81 1018.02 1018.25 1018.51 1018.79 1019.08 1019.36 1019.60 1019.80 1019.96 1020.06 1020.14 1020.22 1020.33 1020.47 1020.66 1020.89 1021.15 1021.39 1021.59 1021.74 1021.81 1021.80 1021.73 1021.61 1021.47 1021.32 1021.17 1021.05 1020.95 1020.86 1020.79
1015.96 1016.05 1016.02 1015.88 1015.68 1015.48 1015.34 1015.28 1015.34 1015.50 1015.75 1016.05 1016.37 1016.68 1016.97 1017.22 1017.46 1017.70 1017.95 1018.24 1018.55 1018.88 1019.22 1019.54 1019.80 1020.02 1020.18 1020.29 1020.38 1020.47 1020.59 1020.76 1020.98 1021.24 1021.52 1021.79 1022.03 1022.20 1022.29 1022.31 1022.25 1022.13 1021.98 1021.82 1021.66 1021.53 1021.41 1021.33 1021.27
1015.82 1015.84 1015.76 1015.59 1015.40 1015.22 1015.12 1015.10 1015.20 1015.38 1015.64 1015.93 1016.23 1016.51 1016.78 1017.03 1017.28 1017.54 1017.83 1018.16 1018.53 1018.91 1019.29 1019.64 1019.93 1020.17 1020.36 1020.49 1020.61 1020.72 1020.87 1021.05 1021.29 1021.55 1021.84 1022.11 1022.35 1022.53 1022.64 1022.67 1022.63 1022.53 1022.40 1022.25 1022.10 1021.97 1021.87 1021.80 1021.77
1015.74 1015.72 1015.60 1015.44 1015.26 1015.12 1015.05 1015.08 1015.19 1015.37 1015.61 1015.87 1016.14 1016.39 1016.63 1016.87 1017.12 1017.41 1017.73 1018.09 1018.49 1018.90 1019.31 1019.69 1020.02 1020.29 1020.51 1020.69 1020.84 1021.00 1021.16 1021.36 1021.59 1021.84 1022.10 1022.35 1022.57 1022.74 1022.86 1022.90 1022.88 1022.82 1022.72 1022.60 1022.49 1022.40 1022.33 1022.30 1022.30
1015.74 1015.69 1015.57 1015.43 1015.29 1015.19 1015.16 1015.21 1015.32 1015.50 1015.70 1015.93 1016.15 1016.37 1016.59 1016.82 1017.07 1017.36 1017.69 1018.07 1018.47 1018.90 1019.31 1019.71 1020.07 1020.38 1020.65 1020.88 1021.08 1021.28 1021.47 1021.67 1021.88 1022.10 1022.31 1022.52 1022.70 1022.85 1022.95 1023.01 1023.03 1023.01 1022.96 1022.90 1022.84 1022.79 1022.77 1022.79 1022.85
1015.80 1015.74 1015.64 1015.53 1015.44 1015.39 1015.40 1015.46 1015.57 1015.72 1015.89 1016.08 1016.26 1016.45 1016.66 1016.88 1017.12 1017.41 1017.74 1018.10 1018.49 1018.89 1019.30 1019.70 1020.07 1020.42 1020.75 1021.04 1021.31 1021.55 1021.77 1021.97 1022.16 1022.34 1022.50 1022.64 1022.78 1022.89 1022.99 1023.06 1023.11 1023.14 1023.15 1023.15 1023.15 1023.16 1023.20 1023.26 1023.36
1015.86 1015.81 1015.75 1015.70 1015.66 1015.67 1015.70 1015.78 1015.88 1015.99 1016.12 1016.26 1016.41 1016.58 1016.77 1016.98 1017.23 1017.51 1017.81 1018.14 1018.49 1018.86 1019.23 1019.62 1020.00 1020.39 1020.77 1021.13 1021.47 1021.77 1022.03 1022.24 1022.42 1022.55 1022.66 1022.75 1022.84 1022.92 1023.01 1023.09 1023.18 1023.25 1023.31 1023.37 1023.43 1023.49 1023.57 1023.68 1023.81
1015.89 1015.87 1015.87 1015.88 1015.91 1015.96 1016.02 1016.08 1016.15 1016.22 1016.29 1016.39 1016.50 1016.65 1016.83 1017.04 1017.29 1017.56 1017.84 1018.13 1018.43 1018.74 1019.08 1019.43 1019.82 1020.24 1020.67 1021.10 1021.52 1021.89 1022.20 1022.45 1022.62 1022.74 1022.81 1022.86 1022.91 1022.97 1023.05 1023.15 1023.26 1023.37 1023.47 1023.57 1023.67 1023.76 1023.87 1024.00 1024.15
1015.86 1015.90 1015.96 1016.04 1016.13 1016.22 1016.28 1016.32 1016.32 1016.32 1016.32 1016.35 1016.42 1016.54 1016.72 1016.94 1017.19 1017.46 1017.72 1017.97 1018.23 1018.49 1018.77 1019.10 1019.49 1019.93 1020.42 1020.92 1021.42 1021.87 1022.25 1022.54 1022.74 1022.86 1022.92 1022.96 1023.00 1023.05 1023.13 1023.24 1023.37 1023.50 1023.63 1023.75 1023.86 1023.97 1024.09 1024.23 1024.38
1015.79 1015.90 1016.04 1016.20 1016.34 1016.44 1016.48 1016.45 1016.36 1016.25 1016.14 1016.08 1016.08 1016.17 1016.34 1016.57 1016.84 1017.12 1017.38 1017.62 1017.84 1018.06 1018.31 1018.61 1019.00 1019.46 1020.00 1020.57 1021.15 1021.68 1022.14 1022.49 1022.74 1022.89 1022.98 1023.03 1023.08 1023.14 1023.24 1023.36 1023.50 1023.65 1023.79 1023.91 1024.02 1024.12 1024.23 1024.36 1024.50
1015.72 1015.91 1016.14 1016.38 1016.56 1016.65 1016.62 1016.48 1016.26 1015.99 1015.74 1015.55 1015.47 1015.51 1015.66 1015.91 1016.21 1016.52 1016.80 1017.04 1017.25 1017.45 1017.68 1017.98 1018.36 1018.85 1019.43 1020.07 1020.71 1021.32 1021.86 1022.28 1022.60 1022.81 1022.94 1023.03 1023.12 1023.21 1023.34 1023.48 1023.64 1023.79 1023.93 1024.04 1024.13 1024.22 1024.31 1024.42 1024.55
1015.68 1015.99 1016.32 1016.63 1016.83 1016.88 1016.76 1016.47 1016.06 1015.59 1015.15 1014.80 1014.60 1014.58 1014.71 1014.97 1015.31 1015.67 1015.99 1016.27 1016.50 1016.72 1016.95 1017.24 1017.63 1018.14 1018.74 1019.42 1020.12 1020.80 1021.40 1021.90 1022.28 1022.56 1022.76 1022.92 1023.06 1023.21 1023.38 1023.56 1023.74 1023.90 1024.04 1024.14 1024.22 1024.29 1024.36 1024.45 1024.58
1015.73 1016.17 1016.62 1016.99 1017.20 1017.19 1016.94 1016.47 1015.84 1015.13 1014.47 1013.94 1013.60 1013.49 1013.60 1013.87 1014.25 1014.67 1015.06 1015.39 1015.67 1015.91 1016.16 1016.46 1016.85 1017.36 1017.98 1018.68 1019.41 1020.13 1020.78 1021.34 1021.79 1022.14 1022.42 1022.66 1022.87 1023.09 1023.32 1023.56 1023.77 1023.96 1024.11 1024.22 1024.29 1024.35 1024.41 1024.50 1024.62
1015.88 1016.46 1017.03 1017.46 1017.67 1017.59 1017.19 1016.52 1015.65 1014.70 1013.81 1013.08 1012.60 1012.40 1012.46 1012.74 1013.17 1013.64 1014.10 1014.50 1014.83 1015.11 1015.38 1015.68 1016.08 1016.58 1017.19 1017.88 1018.62 1019.35 1020.03 1020.63 1021.14 1021.56 1021.91 1022.23 1022.53 1022.84 1023.15 1023.44 1023.72 1023.95 1024.13 1024.26 1024.34 1024.41 1024.48 1024.57 1024.71
1016.11 1016.84 1017.52 1018.01 1018.21 1018.04 1017.50 1016.63 1015.54 1014.36 1013.25 1012.34 1011.72 1011.43 1011.45 1011.74 1012.19 1012.71 1013.23 1013.68 1014.05 1014.36 1014.64 1014.95 1015.32 1015.80 1016.39 1017.05 1017.77 1018.49 1019.18 1019.80 1020.35 1020.82 1021.25 1021.65 1022.04 1022.44 1022.84 1023.22 1023.57 1023.87 1024.10 1024.27 1024.39 1024.48 1024.57 1024.68 1024.84
1016.37 1017.25 1018.03 1018.57 1018.75 1018.50 1017.83 1016.79 1015.51 1014.14 1012.86 1011.80 1011.07 1010.70 1010.68 1010.95 1011.41 1011.96 1012.50 1012.98 1013.37 1013.68 1013.95 1014.24 1014.59 1015.03 1015.57 1016.20 1016.88 1017.58 1018.26 1018.89 1019.46 1019.99 1020.48 1020.96 1021.44 1021.93 1022.43 1022.90 1023.34 1023.71 1024.02 1024.24 1024.41 1024.54 1024.67 1024.81 1024.99
1016.63 1017.62 1018.47 1019.04 1019.19 1018.87 1018.09 1016.93 1015.52 1014.02 1012.62 1011.47 1010.67 1010.24 1010.19 1010.43 1010.88 1011.41 1011.93 1012.39 1012.76 1013.04 1013.28 1013.53 1013.84 1014.23 1014.73 1015.32 1015.96 1016.64 1017.31 1017.95 1018.55 1019.12 1019.67 1020.22 1020.78 1021.36 1021.95 1022.51 1023.04 1023.50 1023.88 1024.18 1024.40 1024.58 1024.74 1024.92 1025.12
1016.81 1017.87 1018.76 1019.32 1019.44 1019.06 1018.21 1016.98 1015.50 1013.95 1012.51 1011.33 1010.50 1010.05 1009.97 1010.17 1010.57 1011.04 1011.50 1011.89 1012.19 1012.41 1012.59 1012.78 1013.04 1013.39 1013.85 1014.41 1015.04 1015.70 1016.37 1017.03 1017.66 1018.27 1018.88 1019.49 1020.13 1020.79 1021.45 1022.10 1022.71 1023.24 1023.70 1024.06 1024.34 1024.57 1024.77 1024.96 1025.18
1016.88 1017.96 1018.83 1019.35 1019.41 1018.99 1018.10 1016.85 1015.37 1013.85 1012.45 1011.31 1010.50 1010.06 1009.96 1010.11 1010.43 1010.80 1011.15 1011.43 1011.61 1011.74 1011.84 1011.97 1012.18 1012.50 1012.94 1013.50 1014.13 1014.81 1015.50 1016.19 1016.86 1017.52 1018.18 1018.85 1019.54 1020.26 1020.98 1021.69 1022.36 1022.96 1023.47 1023.89 1024.22 1024.48 1024.71 1024.92 1025.15
1016.83 1017.86 1018.66 1019.09 1019.09 1018.61 1017.72 1016.50 1015.09 1013.67 1012.37 1011.32 1010.59 1010.18 1010.06 1010.15 1010.36 1010.61 1010.81 1010.94 1010.99 1011.00 1011.01 1011.08 1011.26 1011.57 1012.03 1012.60 1013.27 1014.00 1014.74 1015.48 1016.20 1016.91 1017.61 1018.33 1019.06 1019.82 1020.58 1021.32 1022.02 1022.66 1023.20 1023.65 1024.01 1024.31 1024.55 1024.78 1025.01
1016.68 1017.59 1018.26 1018.57 1018.47 1017.96 1017.07 1015.92 1014.63 1013.35 1012.21 1011.31 1010.67 1010.32 1010.18 1010.21 1010.31 1010.40 1010.43 1010.40 1010.31 1010.20 1010.12 1010.15 1010.32 1010.65 1011.14 1011.77 1012.51 1013.30 1014.11 1014.91 1015.69 1016.44 1017.19 1017.94 1018.70 1019.46 1020.23 1020.98 1021.69 1022.33 1022.89 1023.35 1023.73 1024.04 1024.29 1024.52 1024.75
Thickness
5704 5706 5706 5700 5683 5666 5670 5682 5689 5693 5698 5703 5705 5706 5706 5705 5704 5705 5716 5723 5725 5725 5726 5726 5726 5725 5725 5725 5724 5724 5724 5724 5724 5724 5723 5723 5723 5723 5722 5722 5722 5721 5721 5720 5720 5719 5718 5717 5716
5698 5699 5694 5682 5664 5656 5665 5677 5683 5690 5697 5698 5699 5701 5701 5702 5706 5708 5713 5718 5721 5722 5723 5723 5723 5722 5722 5722 5721 5721 5720 5720 5720 5720 5720 5720 5719 5719 5719 5719 5718 5718 5717 5716 5716 5715 5714 5713 5712
5692 5691 5678 5664 5655 5656 5668 5677 5680 5686 5691 5693 5691 5694 5695 5696 5701 5704 5710 5714 5717 5718 5719 5719 5719 5719 5719 5718 5718 5717 5717 5717 5717 5717 5716 5716 5716 5715 5715 5715 5714 5714 5713 5712 5711 5710 5710 5709 5708
5683 5674 5663 5653 5654 5660 5668 5674 5676 5679 5684 5686 5685 5685 5689 5694 5696 5700 5706 5709 5711 5713 5714 5715 5715 5715 5715 5715 5714 5714 5714 5713 5713 5713 5712 5712 5711 5711 5711 5710 5710 5709 5709 5708 5707 5706 5705 5704 5704
5671 5659 5648 5641 5650 5658 5663 5667 5671 5673 5675 5677 5678 5679 5682 5688 5693 5697 5701 5704 5705 5707 5709 5710 5710 5710 5710 5710 5710 5710 5710 5709 5709 5708 5708 5708 5707 5706 5706 5705 5705 5704 5704 5703 5702 5702 5701 5700 5699
5654 5645 5634 5634 5645 5653 5658 5662 5665 5665 5666 5668 5670 5672 5676 5682 5686 5690 5694 5697 5699 5701 5703 5704 5705 5705 5705 5705 5705 5705 5705 5705 5704 5704 5703 5703 5702 5701 5701 5700 5700 5700 5699 5698 5698 5697 5696 5695 5694
5644 5635 5631 5635 5638 5645 5653 5656 5657 5657 5658 5660 5664 5665 5670 5675 5679 5683 5687 5689 5692 5694 5696 5698 5699 5699 5699 5700 5699 5699 5699 5700 5699 5699 5698 5697 5697 5696 5696 5695 5695 5695 5694 5694 5693 5692 5691 5690 5689
5640 5631 5627 5627 5632 5640 5646 5649 5651 5652 5653 5656 5658 5657 5660 5667 5672 5676 5679 5681 5684 5686 5689 5691 5693 5693 5694 5694 5693 5693 5693 5694 5693 5693 5692 5691 5691 5690 5690 5690 5690 5690 5689 5689 5688 5687 5686 5685 5684
5638 5622 5619 5625 5628 5635 5639 5641 5643 5646 5647 5648 5650 5653 5657 5662 5665 5668 5670 5672 5675 5678 5681 5683 5686 5687 5687 5688 5687 5687 5687 5687 5687 5687 5686 5685 5685 5685 5684 5684 5684 5684 5683 5683 5682 5682 5681 5680 5679
5626 5616 5622 5627 5629 5631 5633 5634 5635 5638 5637 5639 5643 5646 5651 5654 5657 5659 5661 5663 5666 5669 5672 5675 5678 5680 5681 5682 5681 5681 5681 5680 5680 5680 5679 5679 5679 5678 5678 5678 5678 5677 5677 5677 5676 5675 5675 5674 5673
5620 5616 5621 5623 5625 5626 5626 5627 5628 5630 5629 5633 5636 5638 5641 5646 5648 5650 5652 5654 5657 5660 5663 5667 5670 5672 5674 5675 5675 5675 5674 5674 5674 5673 5673 5672 5672 5672 5672 5671 5671 5671 5671 5670 5670 5669 5669 5668 5667
5611 5612 5615 5616 5618 5618 5618 5620 5619 5621 5625 5629 5631 5633 5634 5637 5640 5642 5645 5647 5649 5652 5656 5659 5662 5664 5666 5668 5668 5668 5668 5667 5667 5666 5666 5665 5665 5665 5665 5665 5664 5664 5664 5664 5663 5663 5662 5662 5662
5603 5605 5607 5608 5609 5610 5611 5611 5612 5614 5618 5622 5624 5625 5627 5629 5631 5634 5637 5639 5641 5645 5648 5651 5654 5656 5659 5660 5661 5660 5660 5660 5659 5659 5658 5658 5658 5657 5657 5657 5657 5657 5657 5657 5657 5656 5656 5655 5655
5597 5597 5599 5601 5602 5603 5603 5604 5605 5610 5611 5613 5615 5616 5618 5621 5623 5625 5628 5630 5633 5637 5640 5643 5645 5648 5650 5652 5652 5652 5652 5653 5652 5651 5651 5650 5650 5650 5650 5650 5650 5650 5650 5650 5650 5650 5649 5649 5649
5591 5589 5591 5592 5593 5594 5595 5597 5599 5603 5603 5604 5606 5608 5611 5612 5615 5617 5620 5623 5626 5629 5632 5635 5637 5640 5642 5644 5645 5645 5645 5645 5645 5644 5643 5642 5642 5642 5642 5642 5642 5643 5643 5643 5643 5643 5642 5642 5641
5580 5576 5577 5584 5585 5586 5586 5589 5598 5595 5595 5596 5597 5598 5601 5604 5606 5609 5612 5615 5617 5620 5623 5626 5629 5630 5632 5635 5636 5637 5638 5637 5636 5636 5635 5634 5634 5634 5634 5634 5634 5635 5635 5635 5635 5635 5634 5633 5633
5563 5561 5565 5573 5576 5576 5576 5580 5589 5587 5588 5588 5588 5589 5592 5595 5598 5600 5603 5605 5608 5611 5614 5617 5619 5621 5623 5625 5626 5628 5629 5628 5627 5627 5626 5626 5626 5626 5626 5626 5626 5626 5626 5626 5626 5626 5625 5625 5625
5554 5553 5556 5560 5566 5566 5565 5570 5580 5580 5579 5579 5579 5581 5584 5587 5590 5593 5594 5596 5599 5602 5605 5608 5610 5612 5613 5615 5616 5618 5619 5618 5618 5617 5618 5618 5618 5618 5618 5618 5617 5618 5618 5617 5617 5617 5616 5616 5616
5550 5547 5548 5554 5558 5557 5558 5563 5573 5574 5571 5572 5573 5574 5576 5580 5583 5584 5586 5588 5590 5592 5594 5598 5600 5602 5604 5605 5606 5607 5608 5608 5608 5608 5609 5609 5609 5610 5610 5610 5609 5609 5609 5608 5608 5607 5607 5606 5607
5543 5540 5540 5546 5550 5550 5550 5556 5566 5568 5567 5569 5570 5570 5571 5573 5574 5576 5577 5579 5580 5582 5585 5587 5590 5592 5594 5596 5597 5598 5599 5598 5599 5599 5599 5600 5600 5601 5602 5602 5601 5601 5600 5600 5599 5599 5597 5597 5597
5537 5534 5536 5536 5538 5541 5542 5551 5561 5566 5564 5566 5565 5565 5566 5568 5567 5568 5569 5569 5570 5572 5575 5579 5580 5583 5585 5586 5587 5587 5589 5589 5589 5590 5590 5590 5591 5592 5592 5592 5593 5593 5592 5591 5591 5590 5589 5587 5587
5531 5534 5532 5530 5525 5524 5531 5532 5554 5558 5558 5561 5558 5556 5558 5560 5559 5559 5560 5560 5561 5563 5566 5568 5571 5573 5575 5576 5577 5578 5579 5580 5580 5580 5580 5580 5581 5582 5583 5583 5584 5584 5584 5583 5582 5582 5581 5580 5578
5525 5528 5524 5522 5518 5514 5517 5516 5542 5547 5551 5556 5554 5550 5550 5550 5550 5550 5550 5551 5553 5554 5556 5558 5561 5564 5565 5566 5568 5569 5570 5571 5571 5571 5571 5572 5572 5573 5574 5574 5575 5575 5575 5574 5573 5573 5572 5572 5571
5518 5516 5513 5505 5503 5508 5513 5510 5530 5534 5544 5549 5548 5544 5542 5540 5540 5540 5540 5541 5542 5543 5545 5548 5552 5554 5556 5557 5558 5559 5561 5562 5562 5562 5562 5562 5563 5564 5565 5565 5564 5565 5565 5564 5564 5564 5562 5563 5562
5510 5504 5495 5495 5488 5501 5507 5507 5524 5537 5537 5539 5538 5535 5532 5530 5529 5529 5529 5529 5530 5531 5533 5537 5541 5544 5546 5547 5548 5549 5552 5554 5555 5554 5554 5554 5554 5555 5555 5555 5555 5555 5555 5555 5554 5554 5553 5553 5553
5502 5500 5493 5492 5487 5492 5496 5501 5523 5528 5527 5527 5528 5527 5523 5520 5519 5519 5519 5519 5520 5522 5523 5526 5529 5533 5535 5536 5537 5539 5542 5544 5545 5546 5546 5546 5546 5546 5545 5545 5545 5545 5545 5545 5544 5544 5544 5543 5543
5495 5490 5492 5480 5474 5478 5490 5498 5514 5521 5522 5521 5519 5517 5514 5512 5511 5510 5510 5509 5510 5512 5514 5516 5518 5521 5524 5525 5527 5529 5532 5534 5535 5536 5536 5536 5536 5536 5536 5537 5537 5536 5536 5535 5535 5535 5534 5534 5533
5490 5484 5477 5476 5476 5483 5490 5492 5508 5516 5515 5513 5511 5508 5506 5503 5501 5500 5500 5500 5501 5502 5504 5506 5509 5512 5514 5515 5517 5520 5521 5523 5524 5525 5526 5527 5527 5527 5527 5528 5527 5526 5526 5526 5525 5525 5524 5523 5523
5478 5477 5473 5466 5465 5470 5479 5501 5508 5507 5506 5502 5501 5499 5497 5495 5492 5491 5491 5491 5492 5493 5495 5497 5499 5502 5503 5505 5506 5508 5509 5511 5513 5514 5515 5516 5517 5517 5518 5518 5517 5516 5517 5516 5515 5515 5514 5513 5512
5473 5472 5466 5468 5464 5454 5458 5489 5503 5496 5494 5492 5492 5492 5489 5487 5485 5483 5483 5483 5484 5485 5486 5488 5490 5492 5493 5495 5496 5497 5499 5500 5501 5503 5504 5506 5507 5507 5508 5507 5507 5506 5506 5505 5505 5504 5504 5503 5502